Regional Weather Roundup
Issued by NWS Kansas City/Pleasant Hill, MO

Home | Current Version | Previous Version | Text Only | Print | Product List | Glossary On
Versions: 1 2 3 4 5 6 7 8 9 10 11 12 13 14 15 16 17 18 19 20 21 22 23 24 25 26 27 28 29 30 31 32 33 34 35 36 37 38 39 40 41 42 43 44 45 46 47 48 49 50
466
ASUS43 KEAX 230410
RWREAX

WEATHER ROUNDUP FOR EASTERN KANSAS AND NORTHWEST MISSOURI
NATIONAL WEATHER SERVICE KANSAS CITY/PLEASANT HILL MO
1100 PM CDT FRI SEP 22 2017

KSZ040-057-103>105-MOZ028-029-037-043-230500-
...KANSAS CITY METROPOLITAN AREA...

CITY           SKY/WX    TMP DP  RH WIND       PRES   REMARKS
K.C. INTL      CLEAR     73  68  84 S7        29.96R
K.C. DOWNTOWN  CLEAR     81  70  69 SE6       29.95R
LEES SUMMIT    CLEAR     77  70  79 SE8       29.97R
OLATHE - IXD   CLEAR     74  68  81 SE6       29.97R
OLATHE - OJC   CLEAR     73  69  87 S7        29.97R
LAWRENCE       CLEAR     73  70  90 E5        29.95R

$$

MOZ001>008-011>017-020>025-030>033-038>040-044>046-053-054-230500-
...NORTHERN AND CENTRAL MISSOURI...

CITY           SKY/WX    TMP DP  RH WIND       PRES   REMARKS
ST. JOSEPH     CLEAR     77  69  76 S8        29.94R
MOSBY          CLEAR     72  68  88 CALM      29.96S
WARRENSBURG    CLEAR     72  68  88 SE3       29.97S
WHITEMAN AFB   CLEAR     72  72 100 SE5       29.97R
CLINTON        CLEAR     72  68  88 SE5       29.98S
SEDALIA        CLEAR     75  72  90 CALM      30.00R
WARSAW         NOT AVBL
CHILLICOTHE      N/A     76  70  82 SE3       29.98R
KIRKSVILLE     CLEAR     72  64  76 SE3       30.00S

$$

MOZ041-047>049-056>058-063>065-088>090-097-230500-
...EASTERN AND SOUTHERN MISSOURI...

CITY           SKY/WX    TMP DP  RH WIND       PRES   REMARKS
ST. LOUIS INTL CLEAR     79  64  60 CALM      30.01S
SPIRIT OF STL  CLEAR     70  67  90 CALM      30.00R
COLUMBIA       CLEAR     77  68  73 SE6       30.00S
JEFFERSON CITY CLEAR     73  68  84 CALM      29.99R
ROLLA          CLEAR     75  65  70 SE9       30.03R
OSAGE BEACH    CLEAR     74  68  81 SE3       30.01R
SPRINGFIELD    CLEAR     74  67  78 SE6       30.01R
BRANSON        CLEAR     75  64  69 S5        30.03R
JOPLIN         CLEAR     73  69  87 SE7       29.98R
WEST PLAINS    CLEAR     70  65  84 CALM      30.05R

$$

IAZ060-094-KSZ022-034>040-054-083-096-NEZ052-066-093-230500-
...KANSAS...SOUTHEAST NEBRASKA AND IOWA...

CITY           SKY/WX    TMP DP  RH WIND       PRES   REMARKS
TOPEKA         CLEAR     76  70  82 SE7       29.94R
MANHATTAN      CLEAR     77  68  73 S9        29.91R
EMPORIA        CLEAR     75  66  73 S9        29.94R
CHANUTE        CLEAR     74  68  81 SE6       29.96R
WICHITA        CLEAR     77  69  76 SE14G22   29.91F
OMAHA          CLEAR     81  68  64 S17       29.88R
LINCOLN        CLEAR     80  67  64 S16       29.87R
FALLS CITY     CLEAR     76  69  79 SE8       29.92R
LAMONI         CLEAR     75  68  78 S5        29.97R
DES MOINES     PTCLDY    77  67  71 SE8       29.94R

$$





USA.gov is the U.S. government's official web portal to all federal, state and local government web resources and services.